[[{"header":{"parameterUnit":"m.s-1","parameterCategory":1,"la1":30.2991,"la2":30.254,"lo1":-89.0895,"lo2":-89.0444,"dy":0.0017,"dx":0.0017,"nx":28,"ny":28,"refTime":"2024-09-24T21:00:00:Z","depth":0,"parameterNumber":2,"parameterNumberName":"U-component_of_WINDS"},"data":[0,0,0,0,0,0,0,0,0,0,0,0,0,0,0,0,0,0,0,0,0,0,0,0,0,0,0,0,0,0,0,0,0,0,0,0,0,0,0,0,0,0,0,0,0,0,0,0,0,0,0,0,0,0,0,0,0,0,-0.6242,-0.6241,0,-0.6113,-0.6112,-0.611,-0.6088,-0.6089,-0.609,-0.6091,-0.5966,-0.5962,-0.5958,0,0,0,0,0,0,0,0,0,0,0,0,0,-0.6472,-0.6467,-0.6243,-0.6241,-0.6239,-0.6114,-0.6112,-0.611,-0.6088,-0.6089,-0.609,-0.6092,-0.5968,-0.5962,-0.5957,0,0,0,0,0,0,0,0,0,0,0,0,0,-0.636,-0.6466,-0.6243,-0.6213,-0.6209,-0.6114,-0.6112,-0.611,-0.6087,-0.6089,-0.6091,-0.6092,-0.5969,-0.5963,-0.5957,-0.5885,0,0,-0.5937,-0.5934,0,0,0,0,0,0,0,0,-0.6367,-0.6352,-0.6219,-0.6215,-0.621,-0.6118,-0.6147,-0.6034,-0.6087,-0.6134,-0.6091,-0.6093,-0.6016,-0.6006,-0.5978,-0.5879,-0.5874,-0.5936,-0.5932,-0.5929,-0.5928,0,0,0,0,0,0,0,-0.6375,-0.6358,-0.6192,-0.6217,-0.6212,-0.6206,-0.6192,-0.6125,-0.6068,-0.613,-0.6128,-0.6112,-0.6014,-0.5985,-0.5975,-0.5872,-0.5936,-0.5931,-0.5927,-0.5924,-0.57,-0.5698,0,0,0,0,0,0,-0.6387,-0.6364,-0.6196,-0.6188,-0.6294,-0.6201,-0.6185,-0.6146,-0.6068,-0.6058,-0.6111,-0.6112,-0.5995,-0.5983,-0.5971,-0.5877,-0.593,-0.5923,-0.592,-0.5702,-0.57,-0.5698,0,0,0,0,0,0,-0.6392,-0.6372,-0.6201,-0.6275,-0.6253,-0.6195,-0.6152,-0.6143,-0.6113,-0.6054,-0.6044,-0.6092,-0.5996,-0.598,-0.5904,-0.5872,-0.5921,-0.5915,-0.5705,-0.5702,-0.5699,-0.5692,0,0,0,0,0,0,-0.6399,-0.6374,-0.6346,-0.6275,-0.6249,-0.6136,-0.615,-0.6139,-0.6101,-0.6101,-0.6033,-0.6024,-0.5996,-0.5914,-0.5898,-0.5864,-0.591,-0.5707,-0.5703,-0.57,-0.5694,-0.5689,-0.5684,0,0,0,0,0,-0.6407,-0.6353,-0.6345,-0.6325,-0.6213,-0.6134,-0.612,-0.6087,-0.6099,-0.607,-0.6031,-0.6026,-0.5878,-0.5906,-0.5888,-0.5852,-0.5709,-0.5704,-0.57,-0.5697,-0.569,-0.5684,0,0,0,0,0,0,-0.6427,-0.6343,-0.6334,-0.6254,-0.6201,-0.6131,-0.6094,-0.6081,-0.6026,-0.6028,-0.5991,-0.5976,-0.5901,-0.587,-0.5902,-0.5775,-0.5795,-0.5786,-0.5799,-0.5792,-0.5786,-0.5795,-0.5904,0,0,0,0,0,-0.6421,-0.6363,-0.6294,-0.623,-0.6203,-0.6153,-0.6118,-0.6096,-0.604,-0.6019,-0.5974,-0.5922,-0.5863,-0.5826,-0.5769,-0.569,-0.5673,-0.5655,-0.565,-0.5646,-0.5639,-0.5589,-0.5579,-0.5682,-0.5682,-0.5682,0,0,-0.641,-0.6357,-0.6324,-0.6232,-0.6189,-0.6129,-0.6134,-0.6073,-0.6028,-0.601,-0.5934,-0.5899,-0.5838,-0.5759,-0.5722,-0.573,-0.5606,-0.564,-0.5637,-0.5632,-0.5583,-0.5573,-0.5565,-0.5679,-0.568,-0.568,0,0,-0.6359,-0.6314,-0.6253,-0.6208,-0.6139,-0.6105,-0.609,-0.602,-0.5994,-0.5917,-0.59,-0.5847,-0.5748,-0.5703,-0.5668,-0.5592,-0.5583,-0.5575,-0.5547,-0.5499,-0.549,-0.5483,-0.5452,-0.5442,-0.5568,-0.5568,-0.5568,0,-0.6355,-0.6263,-0.6225,-0.6161,-0.612,-0.6096,-0.6033,-0.5991,-0.591,-0.5882,-0.5891,-0.5761,-0.572,-0.5626,-0.5607,-0.558,-0.5561,-0.5582,-0.5494,-0.5486,-0.5479,-0.5449,-0.5438,-0.5567,-0.5567,-0.5567,-0.5567,0,-0.6259,-0.6195,-0.6154,-0.607,-0.6024,-0.5962,-0.5913,-0.5872,-0.5852,-0.5817,-0.5735,-0.5683,-0.5612,-0.5589,-0.5572,-0.5491,-0.5498,-0.5502,-0.552,-0.5469,-0.544,-0.5429,-0.5566,-0.5566,-0.5566,-0.5567,0,0,-0.6221,-0.611,-0.6096,-0.6054,-0.5974,-0.5924,-0.5859,-0.5786,-0.5749,-0.5692,-0.5635,-0.5548,-0.5548,-0.5508,-0.5485,-0.5443,-0.5381,-0.5451,-0.5449,-0.5437,-0.5284,-0.528,-0.5268,-0.5374,-0.5372,-0.537,-0.5288,0,-0.6158,-0.6038,-0.5998,-0.5899,-0.5836,-0.581,-0.5752,-0.5697,-0.566,-0.5603,-0.5564,-0.5501,-0.5508,-0.5482,-0.544,-0.5397,-0.5349,-0.5403,-0.532,-0.5318,-0.5334,-0.5253,-0.5251,-0.5176,-0.5277,-0.5275,-0.5274,0,-0.607,-0.6005,-0.5897,-0.5818,-0.5791,-0.574,-0.5666,-0.5612,-0.5547,-0.5523,-0.5474,-0.5452,-0.5382,-0.5404,-0.5305,-0.5342,-0.5306,-0.5279,-0.5276,-0.5266,-0.5292,-0.5239,-0.5151,-0.5139,-0.5256,-0.5258,-0.5259,0,-0.6047,-0.5934,-0.5853,-0.5819,-0.5727,-0.569,-0.565,-0.5586,-0.5542,-0.5479,-0.5449,-0.538,-0.5342,-0.5289,-0.5248,-0.5269,-0.5151,-0.5172,-0.5129,-0.5129,-0.5105,-0.5107,-0.5008,-0.5085,-0.5085,-0.5086,-0.5086,0,-0.598,-0.5915,-0.5841,-0.5792,-0.5716,-0.5671,-0.5598,-0.5557,-0.5498,-0.544,-0.5414,-0.536,-0.5311,-0.525,-0.5219,-0.5139,-0.5124,-0.5101,-0.5094,-0.5102,-0.5105,-0.5078,-0.5081,-0.5082,-0.5083,-0.5084,-0.5084,0,-0.5944,-0.5892,-0.5801,-0.5718,-0.5695,-0.5643,-0.5572,-0.5522,-0.5482,-0.5408,-0.5388,-0.5326,-0.5253,-0.5206,-0.5115,-0.5094,-0.5005,-0.5,-0.5026,-0.5021,-0.498,-0.4983,-0.4858,-0.4838,-0.4931,-0.493,-0.493,0,-0.5904,-0.5852,-0.576,-0.5717,-0.5675,-0.5607,-0.556,-0.5512,-0.5465,-0.5382,-0.5342,-0.5265,-0.5202,-0.5085,-0.5033,-0.4961,-0.4953,-0.4914,-0.4943,-0.4951,-0.4948,-0.4951,-0.4944,-0.4909,-0.4909,-0.4908,-0.4907,0,-0.5837,-0.5812,-0.5744,-0.5665,-0.5609,-0.5546,-0.5483,-0.5449,-0.539,-0.5338,-0.526,-0.521,-0.5111,-0.5035,-0.4957,-0.4917,-0.4901,-0.4898,-0.4884,-0.4892,-0.4907,-0.4894,-0.501,-0.4902,-0.4902,-0.4903,-0.4903,-0.4903,-0.5795,-0.5745,-0.5671,-0.5594,-0.554,-0.548,-0.5427,-0.5378,-0.5311,-0.5224,-0.52,-0.5117,-0.5049,-0.4942,-0.4899,-0.4834,-0.4839,-0.482,-0.4814,-0.481,-0.4807,-0.4918,-0.482,-0.482,-0.482,-0.482,-0.482,0,-0.5724,-0.5673,-0.5603,-0.5512,-0.5451,-0.5437,-0.5365,-0.5316,-0.5241,-0.5177,-0.5112,-0.502,-0.4944,-0.4883,-0.4805,-0.4764,-0.4754,-0.4744,-0.4746,-0.4736,-0.4808,-0.4826,-0.4753,-0.4753,-0.4753,-0.4753,-0.4753,-0.4753,-0.568,-0.5592,-0.5557,-0.5442,-0.5392,-0.5307,-0.5266,-0.521,-0.5157,-0.5053,-0.4988,-0.4947,-0.4883,-0.4799,-0.4728,-0.4712,-0.4683,-0.4674,-0.4657,-0.4725,-0.4732,-0.4739,-0.4756,-0.4669,-0.4669,-0.459,-0.4589,-0.4589]},{"header":{"parameterUnit":"m.s-1","parameterCategory":1,"la1":30.2991,"la2":30.254,"lo1":-89.0895,"lo2":-89.0444,"dy":0.0017,"dx":0.0017,"nx":28,"ny":28,"refTime":"2024-09-24T21:00:00:Z","depth":0,"parameterNumber":3,"parameterNumberName":"V-component_of_WINDS"},"data":[0,0,0,0,0,0,0,0,0,0,0,0,0,0,0,0,0,0,0,0,0,0,0,0,0,0,0,0,0,0,0,0,0,0,0,0,0,0,0,0,0,0,0,0,0,0,0,0,0,0,0,0,0,0,0,0,0,0,-3.7289,-3.7289,0,-3.7213,-3.7212,-3.7211,-3.7123,-3.7121,-3.712,-3.7119,-3.7036,-3.7035,-3.7035,0,0,0,0,0,0,0,0,0,0,0,0,0,-3.7355,-3.7354,-3.729,-3.7289,-3.7288,-3.7213,-3.7212,-3.7211,-3.7123,-3.7121,-3.712,-3.7118,-3.7037,-3.7036,-3.7034,0,0,0,0,0,0,0,0,0,0,0,0,0,-3.7307,-3.7354,-3.729,-3.7235,-3.7229,-3.7213,-3.7212,-3.721,-3.7123,-3.7121,-3.7119,-3.7117,-3.7037,-3.7036,-3.7034,-3.7065,0,0,-3.703,-3.7029,0,0,0,0,0,0,0,0,-3.731,-3.7305,-3.7244,-3.7239,-3.7232,-3.7175,-3.7205,-3.7161,-3.7124,-3.7163,-3.7119,-3.7116,-3.7084,-3.7079,-3.7068,-3.7061,-3.7057,-3.703,-3.7029,-3.7028,-3.7028,0,0,0,0,0,0,0,-3.7314,-3.7308,-3.7259,-3.7243,-3.7236,-3.7212,-3.7203,-3.7196,-3.7136,-3.716,-3.7153,-3.7145,-3.708,-3.707,-3.7066,-3.7056,-3.703,-3.7028,-3.7028,-3.7027,-3.7066,-3.7068,0,0,0,0,0,0,-3.7326,-3.7311,-3.7261,-3.7257,-3.7267,-3.7213,-3.7203,-3.7196,-3.7135,-3.7124,-3.7147,-3.7142,-3.7073,-3.7068,-3.7063,-3.7092,-3.7028,-3.7027,-3.7026,-3.7064,-3.7066,-3.7069,0,0,0,0,0,0,-3.7328,-3.7322,-3.7264,-3.7282,-3.7273,-3.7214,-3.7206,-3.7195,-3.7185,-3.7126,-3.7114,-3.7148,-3.7072,-3.7065,-3.7064,-3.7088,-3.7026,-3.7025,-3.7062,-3.7065,-3.7067,-3.7154,0,0,0,0,0,0,-3.733,-3.7323,-3.7336,-3.7283,-3.7272,-3.727,-3.7208,-3.7195,-3.7183,-3.7175,-3.7124,-3.7113,-3.707,-3.7067,-3.7063,-3.7085,-3.7024,-3.7059,-3.7063,-3.7067,-3.7149,-3.7159,-3.7168,0,0,0,0,0,-3.7332,-3.7363,-3.7337,-3.7331,-3.7287,-3.7271,-3.7265,-3.7215,-3.7185,-3.7196,-3.7158,-3.7115,-3.7086,-3.7068,-3.7062,-3.7085,-3.7058,-3.7062,-3.7066,-3.7144,-3.7157,-3.7168,0,0,0,0,0,0,-3.7419,-3.7355,-3.7326,-3.734,-3.7312,-3.7257,-3.7269,-3.7231,-3.721,-3.7203,-3.7141,-3.713,-3.7137,-3.711,-3.7091,-3.7109,-3.7066,-3.7069,-3.7126,-3.7138,-3.7148,-3.7154,-3.7023,0,0,0,0,0,-3.744,-3.7435,-3.7378,-3.7396,-3.7384,-3.7329,-3.732,-3.7284,-3.7252,-3.7239,-3.7201,-3.717,-3.7154,-3.7145,-3.7126,-3.7144,-3.713,-3.7156,-3.7166,-3.7175,-3.7178,-3.7182,-3.7193,-3.7083,-3.7083,-3.7083,0,0,-3.7484,-3.7448,-3.7448,-3.7413,-3.7387,-3.738,-3.732,-3.7316,-3.731,-3.7238,-3.7236,-3.7207,-3.7168,-3.7176,-3.7178,-3.7154,-3.7205,-3.718,-3.7187,-3.7186,-3.7188,-3.7199,-3.7208,-3.7086,-3.7085,-3.7085,0,0,-3.7559,-3.7532,-3.7543,-3.7518,-3.748,-3.7443,-3.7445,-3.7395,-3.7373,-3.737,-3.7315,-3.7306,-3.728,-3.7254,-3.7237,-3.73,-3.7258,-3.7295,-3.7347,-3.7352,-3.7361,-3.7368,-3.7389,-3.7397,-3.7299,-3.7299,-3.7299,0,-3.7617,-3.7607,-3.7554,-3.7553,-3.7538,-3.7474,-3.7483,-3.7461,-3.7418,-3.7408,-3.7383,-3.7347,-3.7316,-3.7316,-3.7332,-3.7321,-3.732,-3.7301,-3.7364,-3.7371,-3.7377,-3.7396,-3.7404,-3.7304,-3.7303,-3.7303,-3.7302,0,-3.7679,-3.7673,-3.7687,-3.7648,-3.7634,-3.7639,-3.7584,-3.7577,-3.7541,-3.7506,-3.7502,-3.7462,-3.7434,-3.7431,-3.7396,-3.7425,-3.7411,-3.7376,-3.7331,-3.7393,-3.741,-3.7417,-3.7311,-3.7309,-3.7308,-3.7306,0,0,-3.7809,-3.7739,-3.7745,-3.7725,-3.7677,-3.767,-3.767,-3.7643,-3.7637,-3.7609,-3.7606,-3.7584,-3.755,-3.7531,-3.7492,-3.7497,-3.7546,-3.746,-3.7458,-3.7477,-3.7573,-3.76,-3.7609,-3.7519,-3.752,-3.7521,-3.7576,0,-3.7875,-3.7874,-3.7825,-3.7836,-3.7828,-3.7765,-3.7765,-3.7734,-3.77,-3.7687,-3.7649,-3.7634,-3.7591,-3.7579,-3.7581,-3.7541,-3.7565,-3.7536,-3.7513,-3.7513,-3.7525,-3.7618,-3.7647,-3.7701,-3.7582,-3.7583,-3.7584,0,-3.7952,-3.7929,-3.794,-3.7889,-3.7884,-3.7885,-3.7855,-3.7844,-3.7806,-3.7781,-3.7759,-3.7715,-3.7708,-3.7666,-3.7655,-3.7636,-3.7623,-3.7602,-3.7602,-3.7598,-3.7552,-3.7615,-3.7717,-3.7725,-3.7594,-3.7593,-3.7592,0,-3.8044,-3.8015,-3.8018,-3.8003,-3.7944,-3.7946,-3.7921,-3.7882,-3.7868,-3.7841,-3.7831,-3.7803,-3.7788,-3.7766,-3.7714,-3.7688,-3.7708,-3.7662,-3.7685,-3.7686,-3.7692,-3.7692,-3.7793,-3.7685,-3.7685,-3.7685,-3.7685,0,-3.8123,-3.8132,-3.8058,-3.806,-3.8067,-3.8009,-3.8017,-3.7986,-3.795,-3.7943,-3.7886,-3.7879,-3.7811,-3.7796,-3.7755,-3.7751,-3.7744,-3.7722,-3.7711,-3.7727,-3.773,-3.7718,-3.7712,-3.7687,-3.7687,-3.7686,-3.7686,0,-3.8227,-3.8178,-3.8177,-3.8121,-3.8107,-3.8114,-3.8065,-3.8063,-3.8025,-3.8016,-3.801,-3.795,-3.7929,-3.7875,-3.784,-3.7812,-3.7818,-3.7798,-3.7831,-3.7824,-3.785,-3.7848,-3.7946,-3.7954,-3.7843,-3.7844,-3.7845,0,-3.828,-3.8286,-3.823,-3.8222,-3.82,-3.8187,-3.8172,-3.8115,-3.8101,-3.8057,-3.8059,-3.8034,-3.8011,-3.7979,-3.7931,-3.7902,-3.7881,-3.7917,-3.7876,-3.7891,-3.7879,-3.7879,-3.7878,-3.7926,-3.7927,-3.7929,-3.793,0,-3.838,-3.8355,-3.8338,-3.8311,-3.8296,-3.8272,-3.8244,-3.824,-3.8174,-3.8162,-3.814,-3.8122,-3.8085,-3.806,-3.8023,-3.7994,-3.795,-3.7943,-3.7946,-3.7963,-3.7981,-3.797,-3.7855,-3.7941,-3.794,-3.7939,-3.7938,-3.7938,-3.8459,-3.846,-3.8421,-3.8403,-3.8376,-3.8351,-3.8346,-3.8307,-3.8289,-3.8256,-3.8222,-3.8203,-3.8161,-3.8108,-3.8082,-3.8064,-3.8042,-3.8047,-3.8049,-3.8051,-3.8057,-3.7985,-3.8057,-3.8057,-3.8057,-3.8056,-3.8056,0,-3.8555,-3.8526,-3.851,-3.8473,-3.8458,-3.8419,-3.8386,-3.8375,-3.836,-3.8326,-3.8304,-3.8277,-3.8251,-3.82,-3.8169,-3.8164,-3.8143,-3.8158,-3.8157,-3.8151,-3.808,-3.808,-3.8176,-3.8176,-3.8176,-3.8176,-3.8175,-3.8175,-3.8603,-3.8602,-3.8572,-3.8556,-3.8527,-3.851,-3.8494,-3.8469,-3.8441,-3.8415,-3.8394,-3.8361,-3.8319,-3.8284,-3.8257,-3.8242,-3.8232,-3.8254,-3.8232,-3.8167,-3.8156,-3.8145,-3.8144,-3.8253,-3.8253,-3.8304,-3.8305,-3.8305]}]]